Location: Caltech
(34.1382°N, 118.1253°W)
Time: 18:27:45
(UTC-08:00)

Cosmos 1943 Rocket - Visible Passes

Search period start: 02 December 2016 00:00
Search period end: 12 December 2016 00:00
Orbit: 813 x 843 km, 71.0° (Epoch: 01 December)

Date Brightness Start Highest point End Pass type
(mag) Time Alt. Az. Time Alt. Az. Time Alt. Az.
03 Dec 4.2 06:10:02 10° N 06:14:26 24° ENE 06:18:47 10° ESE visible
04 Dec 4.4 05:51:06 10° N 05:55:12 21° ENE 05:59:15 10° ESE visible
05 Dec 4.5 05:32:12 10° NNE 05:35:56 18° ENE 05:39:39 10° E visible
06 Dec 4.6 05:13:23 10° NNE 05:16:41 16° NE 05:19:59 10° E visible
07 Dec 4.7 04:54:38 10° NNE 04:57:25 14° NE 05:00:11 10° E visible
08 Dec 4.8 04:36:05 10° NNE 04:38:08 12° NE 04:40:12 10° ENE visible
08 Dec 2.2 06:17:01 10° NNW 06:22:33 83° WSW 06:28:02 10° SSE visible
09 Dec 4.9 04:18:05 10° NE 04:18:51 10° NE 04:19:38 10° ENE visible
09 Dec 2.2 05:57:51 10° NNW 06:03:23 86° ENE 06:08:53 10° SSE visible
09 Dec 4.2 18:59:27 10° S 19:00:22 14° SSE 19:00:22 14° SSE visible
10 Dec 2.3 05:38:42 10° NNW 05:44:13 74° ENE 05:49:42 10° SSE visible
10 Dec 3.7 18:40:32 10° SSE 18:42:41 21° SSE 18:42:41 21° SSE visible
10 Dec 5.0 20:24:14 10° WSW 20:24:17 10° WSW 20:24:17 10° WSW visible
11 Dec 2.5 05:19:34 10° NNW 05:25:02 64° ENE 05:30:29 10° SSE visible
11 Dec 3.3 18:21:40 10° SSE 18:25:00 25° SE 18:25:00 25° SE visible
11 Dec 4.5 20:04:50 10° SW 20:06:35 19° WSW 20:06:35 19° WSW visible
